TimeCST,TemperatureF,Dew PointF,Humidity,Sea Level PressureIn,VisibilityMPH,Wind Direction,Wind SpeedMPH,Gust SpeedMPH,PrecipitationIn,Events,Conditions,WindDirDegrees,DateUTC
12:00 AM,69,67,92,29.78,1,Calm,Calm,,,Rain,Light Rain,,2012-10-22 06:00:00
12:00 AM,69.8,68.0,94,29.94,1.2,Calm,Calm,-,N/A,Rain,Rain,0,2012-10-22 06:00:00
1:00 AM,69.8,68.0,94,29.91,3.1,Calm,Calm,-,N/A,,Mostly Cloudy,0,2012-10-22 07:00:00
2:00 AM,69.8,68.0,94,29.89,5.6,Calm,Calm,-,N/A,,Mostly Cloudy,0,2012-10-22 08:00:00
2:07 AM,69.8,68.0,94,29.89,0.3,SSW,3.5,-,N/A,Fog,Fog,210,2012-10-22 08:07:00
3:00 AM,68,67,94,29.77,6,NNW,3.5,,,Fog,Patches of Fog,330,2012-10-22 09:00:00
3:00 AM,68.0,66.2,94,29.87,6.2,NNW,3.5,-,N/A,Fog,Scattered Clouds,330,2012-10-22 09:00:00
4:00 AM,68.0,66.2,94,29.89,6.2,Calm,Calm,-,N/A,Fog,Partly Cloudy,0,2012-10-22 10:00:00
4:29 AM,68.0,66.2,94,29.89,0.5,Calm,Calm,-,N/A,Fog,Fog,0,2012-10-22 10:29:00
5:00 AM,68.0,66.2,94,29.90,0.3,Calm,Calm,-,N/A,Fog,Fog,0,2012-10-22 11:00:00
6:00 AM,68.0,66.2,94,29.94,0.3,Calm,Calm,-,N/A,Fog,Fog,0,2012-10-22 12:00:00
6:15 AM,68.0,66.2,94,29.94,0.7,North,2.3,-,N/A,,Scattered Clouds,10,2012-10-22 12:15:00
7:00 AM,69.8,68.0,94,29.95,1.6,ENE,2.3,-,N/A,,Scattered Clouds,60,2012-10-22 13:00:00
7:40 AM,73.4,66.2,78,29.95,6.2,East,2.3,-,N/A,,Mostly Cloudy,80,2012-10-22 13:40:00
8:00 AM,75.2,66.2,73,29.94,6.2,East,2.3,-,N/A,,Mostly Cloudy,80,2012-10-22 14:00:00
9:00 AM,78,66,58,29.80,12,WSW,1.2,,,,Scattered Clouds,250,2012-10-22 15:00:00
9:00 AM,78.8,66.2,65,29.96,6.2,WSW,1.2,-,N/A,,Mostly Cloudy,250,2012-10-22 15:00:00
10:00 AM,77.0,66.2,69,29.96,6.2,West,9.2,-,N/A,,Mostly Cloudy,260,2012-10-22 16:00:00
11:00 AM,77.0,68.0,74,29.93,6.2,WSW,6.9,-,N/A,,Mostly Cloudy,240,2012-10-22 17:00:00
12:00 PM,79,68,61,29.72,9,WSW,9.2,,,,Overcast,240,2012-10-22 18:00:00
12:00 PM,78.8,68.0,69,29.90,6.2,WSW,9.2,-,N/A,,Mostly Cloudy,240,2012-10-22 18:00:00
1:00 PM,78.8,68.0,69,29.87,5.6,WSW,11.5,-,N/A,Rain-Thunderstorm,Light Rain,240,2012-10-22 19:00:00
2:00 PM,71.6,68.0,88,29.85,3.1,SW,11.5,-,N/A,Rain,Rain,230,2012-10-22 20:00:00
2:35 PM,69.8,68.0,94,29.85,0.7,WSW,8.1,-,N/A,Rain-Thunderstorm,Rain,240,2012-10-22 20:35:00
2:41 PM,69.8,68.0,94,29.85,0.4,SW,6.9,-,N/A,Fog-Rain,Rain,230,2012-10-22 20:41:00
3:00 PM,70,68,91,29.71,0,SW,8.1,,,Rain,Rain,230,2012-10-22 21:00:00
3:00 PM,69.8,68.0,94,29.86,0.4,SW,8.1,-,N/A,Fog-Rain,Rain,230,2012-10-22 21:00:00
3:10 PM,69.8,68.0,94,29.87,1.2,SW,6.9,-,N/A,Rain,Rain,230,2012-10-22 21:10:00
4:00 PM,69.8,68.0,94,29.88,2.2,WSW,5.8,-,N/A,,Mostly Cloudy,240,2012-10-22 22:00:00
5:00 PM,71.6,68.0,88,29.89,3.7,WSW,3.5,-,N/A,Fog-Rain,Light Rain,250,2012-10-22 23:00:00
6:00 PM,71,68,87,29.77,3,ESE,1.2,,,Rain,Light Rain,110,2012-10-23 00:00:00
6:00 PM,71.6,68.0,88,29.89,6.2,ESE,1.2,-,N/A,Rain,Rain,110,2012-10-23 00:00:00
7:00 PM,69.8,68.0,94,29.91,6.2,ESE,1.2,-,N/A,Fog,Mostly Cloudy,110,2012-10-23 01:00:00
8:00 PM,69.8,66.2,88,29.94,6.2,Calm,Calm,-,N/A,Fog-Rain,Light Rain,0,2012-10-23 02:00:00
9:00 PM,69,67,92,29.78,12,West,3.5,,,Fog,Patches of Fog,270,2012-10-23 03:00:00
9:00 PM,69.8,68.0,94,29.95,6.2,West,3.5,-,N/A,Fog,Patches of Fog,270,2012-10-23 03:00:00
10:00 PM,69.8,68.0,94,29.94,5.0,West,2.3,-,N/A,Fog,Fog,270,2012-10-23 04:00:00
11:00 PM,68.0,66.2,94,29.93,6.2,SE,2.3,-,N/A,Fog,Patches of Fog,130,2012-10-23 05:00:00